Voltar ao catálogo

SCOUT G-1 DEB

AtivoPO
NORAD 22706·DEBRIS·🇺🇸 United States

Lançado Jun 25, 1993 de Vandenberg Space Force Base

Loading…

Próximas Passagens (próximas 24 horas)

TLE

AtualizadoSource: Space-Track

Época: Sep 14, 2026, 09:40 UTC

1 22706U 93041C   26257.40292432  .00000785  00000-0  20942-3 0  9992
2 22706  89.2748  47.5621 0029191  94.0613 295.6693 14.47319414742828

Acompanhe SCOUT G-1 DEB em tempo real com AllMySat

Download on the App Store